FENGYUN 1C DEB, 30305

Orbit data source: Space-Track

FENGYUN 1C DEB, 30305 is space debris in SSO originally from a launch on Mon, 10 May 1999 UTC launched from the Taiyaun Space Center, China (TSC). Fengyun 1C debris stems from the Chinese weather satellite Fengyun-1C, which was intentionally destroyed by a Chinese anti-satellite missile in 2007. This event dramatically increased the amount of space debris, with thousands of trackable fragments posing hazards to satellites and human spaceflight. The Fengyun 1C debris cloud has become a focal point in discussions about space sustainability and the need for international regulations to prevent the creation of new debris.

Loading next visibility...
Identifier
30305, 1999-025ZS
Orbit
SSO
Country
Flag of CNCN / PRC
Related business
Manufacturer
Unknown
Mission
Spacecraft
Bus & Motor
Unknown
Mass
Unknown
Launch date (UTC)
1999-05-10 (27 years ago)
Launch vehicle
Unknown
Launch site
Taiyaun Space Center, China (TSC)
Object type
Payload
Rocket body
Debris
Shape & HBR
Unknown shape, 0.1 m
Radar Cross Section
Small (<0.1 m²)

Expand to show TLE details & history
Last TLE update: 7 hours ago

TLE from 7 hours ago
0 FENGYUN 1C DEB
1 30305U 99025ZS  26063.13153659  .00000139  00000-0  18855-3 0  9999
2 30305  98.5951 358.3258 0263777 248.0628 241.4390 13.60283111948804
Epoch: 2026-03-04T03:09Z
TLE epoch observation values (Epoch: 2026-03-04T03:09:24.761Z)
Latitude
52.35773°
Longitude
-19.68476°
Altitude
1,140.511 km
Speed
7.239 km/s
True Right ascension
12h 38m 16s
True Declination
52° 11' 59"
Sunlit
Object was in full shadow at epoch
Visualization orbit readout
Latitude
Unknown
Longitude
Unknown
Altitude
Unknown
Speed
Unknown
Apparent Right ascension
Unknown
Apparent Declination
Unknown
Sunlit
N/A
Visualization observer readout
Local Sidereal Time
14:18:38
Azimuth
Unknown
Elevation
Unknown
Doppler factor
Unknown
Orbital elements
Apogee altitude
1,227.354 km
Perigee altitude
836.435 km
Semi-major axis
7,410.031 km
Eccentricity
0.02638
Inclination
98.5951°
RAAN
358.3258°
Arg. of periapsis
248.0628°
True anomaly
238.8263°
Mean anomaly
241.439°
Eccentric anomaly
240.12846°
Mean motion
3.40262 °/min
Orbital period
105.8 mins
BSTAR
0.00018855
Loading maneuver chart data...
Computing Atmospheric mass density...
Loading historical data...
Loading historical data...
Loading historical data...
Loading historical data...
Loading historical data...
Loading historical data...
Loading historical data...

Documentation

Showing up to 5 results
|